Location: D�derode
(51.8092°N, 10.1065°E)
Time: 07:03:37
(UTC+00:00)

Cosmos 1680 Rocket - Pass Details

Date: 01 December 2020
Orbit: 760 x 781 km, 74.1° (Epoch: 23 January)

Event Time Altitude Azimuth Distance (km) Brightness Sun altitude
Rises 17:43:44 0° 184° (S) 3,234 6.9 -22.4°
Reaches altitude 10° 17:46:09 10° 179° (S) 2,315 6.0 -22.7°
Enters shadow 17:50:06 41° 141° (SE) 1,112 4.0 -23.4°
